Погода в Молотицах

Россия / Владимирская область     55°45′02″N   41°57′18″E
темп.,
°C
ветер,
м/с
пор.,
м/с
влажн.,
%
обл.,
%
осадки,
мм/ч
давл.,
гПа
погр.,
м
14 июня, пн
пн1400:00+14юз229224 0.0 101133
03:00+14юз2294100 0.0 101223
06:00+16ююз2391100 0.0 1013112
09:00+20ююз2375100 0.0 1014482
12:00+24юз23635 0.1 10141229
15:00+25ююв225771 0.7 10141069
18:00+22ююв117198 0.0 101411
21:00+20юв117181 0.0 101411
15 июня, вт
вт1500:00+17всв11894 1.4 101411
03:00+16юв119140 1.6 101413
06:00+18в129092 0.2 101480
09:00+20юв1286100 0.2 1014175
12:00+25ю22630 0.4 1013692
15:00+26ююз22542 1.1 1011843
18:00+24ююз116966 0.1 1010600
21:00+19юв228418 0.5 101018
16 июня, ср
ср1600:00+18ююв228683 0.1 100920
03:00+16юз119295 1.4 100911
06:00+18зюз1290100 1.7 100992
09:00+22зсз237541 1.7 1009490
12:00+22ссз578092 3.1 1009661
15:00+22ссз69685 6.0 10111260
18:00+20ссз696910 0.0 10131006
21:00+14сз39707 0.0 1016191
17 июня, чт
чт1700:00+12ссз397334 0.0 1017162
03:00+11сз377242 0.0 1019116
06:00+13сз36755 0.0 1021156
09:00+19сз46545 0.0 1022819
12:00+21ссз57450 0.0 10221912
15:00+22с58487 0.0 10222193
18:00+19с48600 0.0 1023668
21:00+14ссз33720 0.0 102428
18 июня, пт
пт1800:00+12ссз33730 0.0 102635
03:00+11сз22773 0.0 102726
06:00+14ссз237545 0.0 1028109
09:00+20сз12570 0.0 1028519
12:00+23зюз13475 0.0 10271522
15:00+25зюз2444100 0.0 10261997
18:00+25ссз136177 0.0 1026516
21:00+18ююв22775 0.0 102611